******** Week 355 almanac for PRN-1 ******** ID: 1 Health: 0 Eccentricity: 0.00143289566 Time of Applicability(s): 319488 Orbital Inclination(rad): 0.958404831 Rate of Right Ascen(r/s): -8.194627053e-09 SQRT(A) (m 1/2): 5153.580566 Right Ascen at Week(rad): -2.520573865 Argument of Perigee(rad): 0.0009688496826 Mean Anom(rad): -0.5716651301 Af0(s): 0.0002683080566 Af1(s/s): -3.637979e-12 week: 355 ******** Week 355 almanac for PRN-2 ******** ID: 2 Health: 0 Eccentricity: 0.01697731018 Time of Applicability(s): 319488 Orbital Inclination(rad): 0.9638816218 Rate of Right Ascen(r/s): -8.034620388e-09 SQRT(A) (m 1/2): 5153.55957 Right Ascen at Week(rad): -2.683230507 Argument of Perigee(rad): -0.8392781154 Mean Anom(rad): 0.8273002571 Af0(s): 2.110288086e-05 Af1(s/s): 7.275958e-12 week: 355 ******** Week 355 almanac for PRN-3 ******** ID: 3 Health: 0 Eccentricity: 0.006376743317 Time of Applicability(s): 319488 Orbital Inclination(rad): 0.99266773 Rate of Right Ascen(r/s): -7.771752296e-09 SQRT(A) (m 1/2): 5153.603027 Right Ascen at Week(rad): -1.534296498 Argument of Perigee(rad): 1.206220476 Mean Anom(rad): -2.788963204 Af0(s): 0.0004627560303 Af1(s/s): -1.091394e-11 week: 355 ******** Week 355 almanac for PRN-4 ******** ID: 4 Health: 0 Eccentricity: 0.003719329834 Time of Applicability(s): 319488 Orbital Inclination(rad): 0.9705808035 Rate of Right Ascen(r/s): -7.588887536e-09 SQRT(A) (m 1/2): 5153.70166 Right Ascen at Week(rad): -0.4630805622 Argument of Perigee(rad): -2.90337585 Mean Anom(rad): 0.2463173922 Af0(s): 3.240799561e-05 Af1(s/s): 3.637979e-12 week: 355 ******** Week 355 almanac for PRN-5 ******** ID: 5 Health: 0 Eccentricity: 0.005368232727 Time of Applicability(s): 319488 Orbital Inclination(rad): 0.979239406 Rate of Right Ascen(r/s): -7.920329913e-09 SQRT(A) (m 1/2): 5153.641602 Right Ascen at Week(rad): -1.593636762 Argument of Perigee(rad): 1.421414836 Mean Anom(rad): 0.8707966269 Af0(s): -0.0001801281616 Af1(s/s): 0 week: 355 ******** Week 355 almanac for PRN-6 ******** ID: 6 Health: 0 Eccentricity: 0.00387430191 Time of Applicability(s): 319488 Orbital Inclination(rad): 0.9873527262 Rate of Right Ascen(r/s): -7.897471818e-09 SQRT(A) (m 1/2): 5153.571289 Right Ascen at Week(rad): -2.570976894 Argument of Perigee(rad): -0.6117669682 Mean Anom(rad): -1.421440303 Af0(s): -0.0004793368652 Af1(s/s): -3.637979e-12 week: 355 ******** Week 355 almanac for PRN-7 ******** ID: 7 Health: 0 Eccentricity: 0.02026033401 Time of Applicability(s): 319488 Orbital Inclination(rad): 0.9510225484 Rate of Right Ascen(r/s): -7.840326581e-09 SQRT(A) (m 1/2): 5153.573242 Right Ascen at Week(rad): 0.5454245461 Argument of Perigee(rad): -2.001577531 Mean Anom(rad): -2.323639719 Af0(s): -0.0001115437988 Af1(s/s): -3.637979e-12 week: 355 ******** Week 355 almanac for PRN-8 ******** ID: 8 Health: 0 Eccentricity: 0.01146745682 Time of Applicability(s): 319488 Orbital Inclination(rad): 0.9441136428 Rate of Right Ascen(r/s): -7.863184676e-09 SQRT(A) (m 1/2): 5153.625488 Right Ascen at Week(rad): 2.593750291 Argument of Perigee(rad): 0.5087782843 Mean Anom(rad): 0.5208707418 Af0(s): 0.0003941716675 Af1(s/s): -3.637979e-12 week: 355 ******** Week 355 almanac for PRN-9 ******** ID: 9 Health: 0 Eccentricity: 0.003341674805 Time of Applicability(s): 319488 Orbital Inclination(rad): 0.9646845648 Rate of Right Ascen(r/s): -7.657461821e-09 SQRT(A) (m 1/2): 5153.526367 Right Ascen at Week(rad): -0.5270755742 Argument of Perigee(rad): 2.06484525 Mean Anom(rad): 1.117561555 Af0(s): 0.0006089688477 Af1(s/s): 0 week: 355 ******** Week 355 almanac for PRN-10 ******** ID: 10 Health: 0 Eccentricity: 0.01096820831 Time of Applicability(s): 319488 Orbital Inclination(rad): 0.9922063373 Rate of Right Ascen(r/s): -7.748894201e-09 SQRT(A) (m 1/2): 5153.608887 Right Ascen at Week(rad): -1.536807568 Argument of Perigee(rad): -2.26159851 Mean Anom(rad): 2.517087205 Af0(s): -0.0004627560303 Af1(s/s): -3.637979e-12 week: 355 ******** Week 355 almanac for PRN-11 ******** ID: 11 Health: 0 Eccentricity: 0.002244472504 Time of Applicability(s): 319488 Orbital Inclination(rad): 0.9641992037 Rate of Right Ascen(r/s): -8.126052768e-09 SQRT(A) (m 1/2): 5153.509766 Right Ascen at Week(rad): -2.551453468 Argument of Perigee(rad): -2.284940409 Mean Anom(rad): -0.4158593455 Af0(s): -0.0003625173462 Af1(s/s): 1.455192e-11 week: 355 ******** Week 355 almanac for PRN-12 ******** ID: 12 Health: 0 Eccentricity: 0.009078979492 Time of Applicability(s): 319488 Orbital Inclination(rad): 0.9587943183 Rate of Right Ascen(r/s): -7.748894201e-09 SQRT(A) (m 1/2): 5153.500977 Right Ascen at Week(rad): 1.663300312 Argument of Perigee(rad): 1.539494655 Mean Anom(rad): -2.936591627 Af0(s): -0.0004800905395 Af1(s/s): 0 week: 355 ******** Week 355 almanac for PRN-13 ******** ID: 13 Health: 0 Eccentricity: 0.009935379028 Time of Applicability(s): 319488 Orbital Inclination(rad): 0.9762852945 Rate of Right Ascen(r/s): -7.531742299e-09 SQRT(A) (m 1/2): 5153.62793 Right Ascen at Week(rad): -0.3524751545 Argument of Perigee(rad): 0.9998423862 Mean Anom(rad): 0.2555029261 Af0(s): 0.0005441528564 Af1(s/s): 0 week: 355 ******** Week 355 almanac for PRN-14 ******** ID: 14 Health: 0 Eccentricity: 0.006564617157 Time of Applicability(s): 319488 Orbital Inclination(rad): 0.9421242614 Rate of Right Ascen(r/s): -7.954617056e-09 SQRT(A) (m 1/2): 5153.586914 Right Ascen at Week(rad): 1.60917431 Argument of Perigee(rad): -2.761647784 Mean Anom(rad): -3.136127099 Af0(s): 0.0005780682007 Af1(s/s): 3.637979e-12 week: 355 ******** Week 355 almanac for PRN-15 ******** ID: 15 Health: 0 Eccentricity: 0.01660585403 Time of Applicability(s): 319488 Orbital Inclination(rad): 0.9424418434 Rate of Right Ascen(r/s): -7.920329913e-09 SQRT(A) (m 1/2): 5153.631836 Right Ascen at Week(rad): -0.6702814443 Argument of Perigee(rad): 1.495081867 Mean Anom(rad): -0.4825867608 Af0(s): 0.0003007160522 Af1(s/s): 3.637979e-12 week: 355 ******** Week 355 almanac for PRN-16 ******** ID: 16 Health: 0 Eccentricity: 0.01505422592 Time of Applicability(s): 319488 Orbital Inclination(rad): 0.9579494304 Rate of Right Ascen(r/s): -7.794610391e-09 SQRT(A) (m 1/2): 5153.574219 Right Ascen at Week(rad): 1.680341131 Argument of Perigee(rad): 0.9248267559 Mean Anom(rad): 1.527322054 Af0(s): 0.0001560105835 Af1(s/s): 7.275958e-12 week: 355 ******** Week 355 almanac for PRN-17 ******** ID: 17 Health: 0 Eccentricity: 0.01275873184 Time of Applicability(s): 319488 Orbital Inclination(rad): 0.959896867 Rate of Right Ascen(r/s): -7.748894201e-09 SQRT(A) (m 1/2): 5153.528809 Right Ascen at Week(rad): 2.697895453 Argument of Perigee(rad): -1.131205595 Mean Anom(rad): 0.4215567209 Af0(s): -3.69300415e-05 Af1(s/s): -1.091394e-11 week: 355 ******** Week 355 almanac for PRN-18 ******** ID: 18 Health: 0 Eccentricity: 0.005704879761 Time of Applicability(s): 319488 Orbital Inclination(rad): 0.972312524 Rate of Right Ascen(r/s): -8.034620388e-09 SQRT(A) (m 1/2): 5153.597168 Right Ascen at Week(rad): -2.575542509 Argument of Perigee(rad): -2.856516407 Mean Anom(rad): -1.563768703 Af0(s): -0.0003474438599 Af1(s/s): 1.091394e-11 week: 355 ******** Week 355 almanac for PRN-19 ******** ID: 19 Health: 0 Eccentricity: 0.01102399826 Time of Applicability(s): 319488 Orbital Inclination(rad): 0.9591059081 Rate of Right Ascen(r/s): -7.760323248e-09 SQRT(A) (m 1/2): 5153.666992 Right Ascen at Week(rad): 2.741793294 Argument of Perigee(rad): 2.91880142 Mean Anom(rad): 2.273340429 Af0(s): 0.0005433991821 Af1(s/s): 0 week: 355 ******** Week 355 almanac for PRN-21 ******** ID: 21 Health: 0 Eccentricity: 0.0006170272827 Time of Applicability(s): 319488 Orbital Inclination(rad): 0.9620959722 Rate of Right Ascen(r/s): -8.057478483e-09 SQRT(A) (m 1/2): 5153.69873 Right Ascen at Week(rad): -1.527048289 Argument of Perigee(rad): -0.446339349 Mean Anom(rad): -3.134964255 Af0(s): 0.0003074991211 Af1(s/s): 7.275958e-12 week: 355 ******** Week 355 almanac for PRN-22 ******** ID: 22 Health: 0 Eccentricity: 0.01217699051 Time of Applicability(s): 319488 Orbital Inclination(rad): 0.9573861719 Rate of Right Ascen(r/s): -7.806039438e-09 SQRT(A) (m 1/2): 5153.571289 Right Ascen at Week(rad): 1.683684356 Argument of Perigee(rad): -0.9962830714 Mean Anom(rad): 1.072960015 Af0(s): -4.220576172e-05 Af1(s/s): 3.637979e-12 week: 355 ******** Week 355 almanac for PRN-23 ******** ID: 23 Health: 0 Eccentricity: 0.006000518799 Time of Applicability(s): 319488 Orbital Inclination(rad): 0.9872089155 Rate of Right Ascen(r/s): -7.817468486e-09 SQRT(A) (m 1/2): 5153.657715 Right Ascen at Week(rad): -1.568752643 Argument of Perigee(rad): -2.742850902 Mean Anom(rad): -2.671265007 Af0(s): 0.0004785831909 Af1(s/s): 3.637979e-12 week: 355 ******** Week 355 almanac for PRN-24 ******** ID: 24 Health: 0 Eccentricity: 0.01783895493 Time of Applicability(s): 319488 Orbital Inclination(rad): 0.9350775372 Rate of Right Ascen(r/s): -8.023191341e-09 SQRT(A) (m 1/2): 5153.587891 Right Ascen at Week(rad): 0.4375414299 Argument of Perigee(rad): 1.13088277 Mean Anom(rad): -1.342309589 Af0(s): -0.0001145584961 Af1(s/s): 1.455192e-11 week: 355 ******** Week 355 almanac for PRN-25 ******** ID: 25 Health: 0 Eccentricity: 0.01294755936 Time of Applicability(s): 319488 Orbital Inclination(rad): 0.9471216832 Rate of Right Ascen(r/s): -7.897471818e-09 SQRT(A) (m 1/2): 5153.677246 Right Ascen at Week(rad): 1.56981025 Argument of Perigee(rad): 1.152957712 Mean Anom(rad): -3.099622027 Af0(s): 0.0003534732544 Af1(s/s): -3.637979e-12 week: 355 ******** Week 355 almanac for PRN-26 ******** ID: 26 Health: 0 Eccentricity: 0.0109796524 Time of Applicability(s): 319488 Orbital Inclination(rad): 0.9278929944 Rate of Right Ascen(r/s): -8.160339911e-09 SQRT(A) (m 1/2): 5153.633301 Right Ascen at Week(rad): 1.495870579 Argument of Perigee(rad): 0.7047806573 Mean Anom(rad): 2.356537914 Af0(s): -0.0002517272217 Af1(s/s): -7.275958e-12 week: 355 ******** Week 355 almanac for PRN-27 ******** ID: 27 Health: 0 Eccentricity: 0.01423215866 Time of Applicability(s): 319488 Orbital Inclination(rad): 0.9532456222 Rate of Right Ascen(r/s): -7.783181343e-09 SQRT(A) (m 1/2): 5153.619629 Right Ascen at Week(rad): 2.625477778 Argument of Perigee(rad): 0.8710329408 Mean Anom(rad): 0.6139001602 Af0(s): -2.261022949e-05 Af1(s/s): -7.275958e-12 week: 355 ******** Week 355 almanac for PRN-28 ******** ID: 28 Health: 0 Eccentricity: 0.0004019737244 Time of Applicability(s): 319488 Orbital Inclination(rad): 0.9619941063 Rate of Right Ascen(r/s): -7.771752296e-09 SQRT(A) (m 1/2): 5153.713379 Right Ascen at Week(rad): 0.5193135416 Argument of Perigee(rad): 0.2625773638 Mean Anom(rad): -2.224523812 Af0(s): -0.0004778295166 Af1(s/s): 7.275958e-12 week: 355 ******** Week 355 almanac for PRN-29 ******** ID: 29 Health: 0 Eccentricity: 0.003294467926 Time of Applicability(s): 319488 Orbital Inclination(rad): 0.9625453807 Rate of Right Ascen(r/s): -7.748894201e-09 SQRT(A) (m 1/2): 5153.734863 Right Ascen at Week(rad): 2.714516449 Argument of Perigee(rad): 2.745104685 Mean Anom(rad): 0.4906034583 Af0(s): -0.0003044844238 Af1(s/s): 7.275958e-12 week: 355 ******** Week 355 almanac for PRN-30 ******** ID: 30 Health: 0 Eccentricity: 0.007927417755 Time of Applicability(s): 319488 Orbital Inclination(rad): 0.9362759597 Rate of Right Ascen(r/s): -8.034620388e-09 SQRT(A) (m 1/2): 5153.710938 Right Ascen at Week(rad): 0.5369037622 Argument of Perigee(rad): -2.340318764 Mean Anom(rad): -2.446736059 Af0(s): 8.139682617e-05 Af1(s/s): 1.091394e-11 week: 355 ******** Week 355 almanac for PRN-31 ******** ID: 31 Health: 0 Eccentricity: 0.01084709167 Time of Applicability(s): 319488 Orbital Inclination(rad): 0.9547796029 Rate of Right Ascen(r/s): -7.851755628e-09 SQRT(A) (m 1/2): 5153.70459 Right Ascen at Week(rad): 0.5694993559 Argument of Perigee(rad): 0.9332333152 Mean Anom(rad): 2.883653561 Af0(s): -0.0001341540283 Af1(s/s): 3.637979e-12 week: 355 ******** Week 355 almanac for PRN-32 ******** ID: 32 Health: 0 Eccentricity: 0.009224891663 Time of Applicability(s): 319488 Orbital Inclination(rad): 0.9677585185 Rate of Right Ascen(r/s): -7.588887536e-09 SQRT(A) (m 1/2): 5153.674316 Right Ascen at Week(rad): -0.5101912994 Argument of Perigee(rad): -2.018756543 Mean Anom(rad): 1.216464367 Af0(s): -0.0001122974731 Af1(s/s): 1.818989e-11 week: 355